Location: Unspecified
(43.4680°N, 87.1740°E)
Time: 05:52:47
(UTC+00:00)

BREEZE M DEB (TANK) - Pass Details

Date: 17 April 2021
Orbit: 273 x 14497 km, 49.6° (Epoch: 16 May)

Event Time Altitude Azimuth Distance (km) Brightness Sun altitude
Rises 15:18:58 0° 253° (WSW) 6,622 8.2 -23.2°
Reaches altitude 10° 15:25:15 10° 257° (WSW) 3,917 7.0 -24.0°
Maximum altitude 15:32:43 53° 335° (NNW) 760 3.2 -25.0°
Enters shadow 15:33:25 45° 17° (NNE) 763 3.1 -25.1°
